Погода в Арамболе

Индия     15°41′07″N   73°43′14″E
темп.,
°C
ветер,
м/с
пор.,
м/с
влажн.,
%
обл.,
%
осадки,
мм/ч
давл.,
гПа
погр.,
м
23 апреля, пт
пт2323:30+27сз1276100 0.0 101167
02:30+25в1181100 0.0 101046
05:30+25в128569 0.0 101043
08:30+30юв116368 0.0 1012603
11:30+34зюз4447100 0.0 10111435
14:30+33з6550100 0.0 1008960
17:30+30зсз665699 0.0 1008948
20:30+28сз4862100 0.0 1010529
24 апреля, сб
сб2423:30+26с126999 0.0 101169
02:30+25св12736 0.0 100945
05:30+24ссв1173100 0.0 101019
08:30+29ссз2555100 0.0 1011595
11:30+35зсз5434100 0.0 10101343
14:30+33зсз884596 0.0 1007748
17:30+31зсз67486 0.0 1007861
20:30+28сз486417 0.0 1009551
25 апреля, вс
вс2523:30+27ссз156798 0.0 1010326
02:30+25ссв12765 0.0 100939
05:30+24св117827 0.0 100922
08:30+30с125625 0.0 1011549
11:30+35з54405 0.0 10101278
14:30+33з77486 0.0 1007877
17:30+31зсз66552 0.0 1007974
20:30+28сз47720 0.0 1009523
26 апреля, пн
пн2623:30+26всв118189 0.0 101035
02:30+27св11806 0.0 100759
05:30+26св128466 0.0 1008103
08:30+29сз236935 0.0 1010630
11:30+35з54475 0.0 10081314
14:30+33з76550 0.0 1006909
17:30+31зсз456181 0.0 1006861
20:30+29зсз35748 0.0 1008392
27 апреля, вт
вт2723:30+28ссз127877 0.0 100971
02:30+28ссв127794 0.0 1007175
05:30+26сз118190 0.0 100826
08:30+28в1173100 1.8 1011241
11:30+31зюз4262100 1.8 1009938
14:30+35з64442 0.0 10061135
17:30+31зсз55520 0.1 1006653
20:30+29сз36772 0.3 1008427